Change the Weather History Date:

Friday, November 16, 2012

  Actual Average Record
Temperature  
Mean Temperature 46 °F -  
Max Temperature 55 °F 47 °F 60 °F (2002)
Min Temperature 37 °F 36 °F 28 °F (2007)
Degree Days  
Heating Degree Days 19    
Moisture  
Dew Point 40 °F    
Average Humidity 74    
Maximum Humidity 100    
Minimum Humidity 49    
Precipitation  
Precipitation 0.00 in 0.12 in - ()
Sea Level Pressure  
Sea Level Pressure 30.17 in    
Wind  
Wind Speed 3 mph ()    
Max Wind Speed 8 mph    
Max Gust Speed -    
Visibility 5.3 miles    
Events      
Averages and records for this station are not official NWS values.
T = Trace of Precipitation, MM = Missing Value Source: Averaged Metar Reports

Daily Weather History Graph

Daily Weather History Graph

Search for Another Location

Airport or City:

Trip Planner

Search our weather history database for the weather conditions in past years. The results will help you decide how hot, cold, wet, or windy it might be!

Date:

Astronomy

Nov. 16, 2012 Rise Set
Actual Time 7:26 AM CET 4:51 PM CET
Civil Twilight 6:53 AM CET 5:23 PM CET
Nautical Twilight 6:17 AM CET 6:00 PM CET
Astronomical Twilight 5:42 AM CET 6:35 PM CET
Moon 10:09 AM CET (11/16) 7:29 PM CET (11/16)
Length of Visible Light 10h 29m
Length of Day
9h 24m
Waxing Crescent, 9% of the Moon is Illuminated
Nov 16
Waxing Crescent
Nov 20
First Quarter
Nov 28
Full
Dec 6
Last Quarter
Dec 13
New

Hourly Weather History & Observations

Time (CET) Temp. Windchill Dew Point Humidity Pressure Visibility Wind Dir Wind Speed Gust Speed Precip Events Conditions
12:00 AM 50 °F - 43 °F 71% 30.20 in - South 2.3 mph - -  
12:20 AM 48.2 °F - 44.6 °F 87% 30.18 in 3.7 mi Variable 1.2 mph - N/A   Overcast
12:50 AM 48.2 °F - 44.6 °F 87% 30.18 in 3.7 mi Variable 1.2 mph - N/A   Overcast
1:20 AM 48.2 °F - 44.6 °F 87% 30.18 in 4.3 mi North 2.3 mph - N/A   Overcast
1:50 AM 48.2 °F - 44.6 °F 87% 30.15 in 4.3 mi Variable 2.3 mph - N/A   Mostly Cloudy
2:00 AM 49 °F - 43 °F 73% 30.19 in - Calm Calm - -  
2:20 AM 48.2 °F - 44.6 °F 87% 30.15 in 4.3 mi North 2.3 mph - N/A   Overcast
2:50 AM 48.2 °F - 44.6 °F 87% 30.15 in 4.3 mi Variable 1.2 mph - N/A   Mostly Cloudy
3:00 AM 50 °F - 44 °F 73% 30.18 in - Calm Calm - -  
3:20 AM 48.2 °F - 44.6 °F 87% 30.15 in 3.7 mi South 1.2 mph - N/A   Overcast
3:50 AM 48.2 °F - 41.0 °F 76% 30.15 in 6.2 mi Variable 1.2 mph - N/A   Overcast
4:20 AM 48.2 °F - 41.0 °F 76% 30.15 in 6.2 mi NNE 4.6 mph - N/A   Mostly Cloudy
4:50 AM 48.2 °F - 39.2 °F 71% 30.15 in 6.2 mi NNE 5.8 mph - N/A   Overcast
5:00 AM 48 °F - 38 °F 59% 30.18 in - NNE 2.3 mph - -  
5:20 AM 46.4 °F 44.3 °F 39.2 °F 76% 30.15 in 6.2 mi NNE 4.6 mph - N/A   Overcast
5:50 AM 46.4 °F 42.9 °F 39.2 °F 76% 30.15 in 6.2 mi North 6.9 mph - N/A   Mostly Cloudy
6:00 AM 47 °F - 38 °F 60% 30.19 in - North 4.6 mph - -  
6:20 AM 44.6 °F 40.7 °F 37.4 °F 76% 30.15 in 6.2 mi North 6.9 mph - N/A   Overcast
6:50 AM 44.6 °F 40.2 °F 39.2 °F 81% 30.15 in 6.2 mi North 8.1 mph - N/A   Mostly Cloudy
7:20 AM 42.8 °F 38.0 °F 39.2 °F 87% 30.15 in 6.2 mi North 8.1 mph - N/A   Mostly Cloudy
7:50 AM 44.6 °F 40.7 °F 37.4 °F 76% 30.18 in 6.2 mi North 6.9 mph - N/A   Mostly Cloudy
8:00 AM 46 °F - 38 °F 63% 30.21 in - North 3.5 mph - -  
8:20 AM 44.6 °F 40.2 °F 39.2 °F 81% 30.18 in 6.2 mi North 8.1 mph - N/A   Mostly Cloudy
8:50 AM 44.6 °F 42.2 °F 39.2 °F 81% 30.18 in 6.2 mi North 4.6 mph - N/A   Mostly Cloudy
9:00 AM 46 °F - 38 °F 63% 30.23 in - North 1.2 mph - -  
9:20 AM 46.4 °F 45.2 °F 39.2 °F 76% 30.18 in 6.2 mi North 3.5 mph - N/A   Mostly Cloudy
9:50 AM 46.4 °F 45.2 °F 39.2 °F 76% 30.18 in 6.2 mi North 3.5 mph - N/A   Partly Cloudy
10:20 AM 50.0 °F - 39.2 °F 66% 30.18 in 6.2 mi Variable 1.2 mph - N/A   Partly Cloudy
10:50 AM 50.0 °F - 39.2 °F 66% 30.18 in 6.2 mi Variable 1.2 mph - N/A   Partly Cloudy
11:00 AM 49 °F - 40 °F 64% 30.22 in - SSE 2.3 mph - -  
11:20 AM 51.8 °F - 39.2 °F 62% 30.18 in 6.2 mi Variable 3.5 mph - N/A   Partly Cloudy
11:50 AM 51.8 °F - 39.2 °F 62% 30.18 in 6.2 mi South 4.6 mph - N/A   Partly Cloudy
12:00 PM 50 °F - 40 °F 60% 30.20 in - ESE 2.3 mph - -  
12:20 PM 53.6 °F - 39.2 °F 58% 30.18 in - South 3.5 mph - N/A   Clear
12:50 PM 53.6 °F - 39.2 °F 58% 30.15 in - South 4.6 mph - N/A   Clear
1:20 PM 53.6 °F - 35.6 °F 51% 30.15 in - SSE 4.6 mph - N/A   Clear
1:50 PM 55.4 °F - 39.2 °F 54% 30.15 in - South 4.6 mph - N/A   Clear
2:00 PM 53 °F - 40 °F 49% 30.16 in - SSW 3.5 mph - -  
2:20 PM 55.4 °F - 39.2 °F 54% 30.15 in - South 5.8 mph - N/A   Clear
2:50 PM 53.6 °F - 41.0 °F 62% 30.15 in - South 6.9 mph - N/A   Clear
3:00 PM 53 °F - 41 °F 52% 30.15 in - South 5.8 mph - -  
3:20 PM 53.6 °F - 41.0 °F 62% 30.12 in - South 6.9 mph - N/A   Clear
3:50 PM 53.6 °F - 41.0 °F 62% 30.12 in - South 6.9 mph - N/A   Clear
4:20 PM 51.8 °F - 41.0 °F 67% 30.12 in - South 4.6 mph - N/A   Clear
4:50 PM 50.0 °F - 42.8 °F 76% 30.15 in - South 4.6 mph - N/A   Clear
5:00 PM 52 °F - 40 °F 53% 30.16 in - SW 2.3 mph - -  
5:20 PM 48.2 °F - 41.0 °F 76% 30.15 in - Variable 1.2 mph - N/A   Clear
5:50 PM 46.4 °F - 41.0 °F 81% 30.15 in - Variable 2.3 mph - N/A   Clear
6:00 PM 48 °F - 40 °F 66% 30.18 in - North 3.5 mph - -  
6:20 PM 44.6 °F - 39.2 °F 81% 30.15 in - North 2.3 mph - N/A   Clear
6:50 PM 42.8 °F - 39.2 °F 87% 30.15 in 5.6 mi Variable 1.2 mph - N/A   Unknown
7:20 PM 42.8 °F - 39.2 °F 87% 30.15 in 5.6 mi Calm Calm - N/A   Unknown
7:50 PM 42.8 °F - 39.2 °F 87% 30.15 in 5.6 mi NNW 1.2 mph - N/A   Unknown
8:00 PM 46 °F - 38 °F 67% 30.20 in - North 2.3 mph - -  
8:20 PM 41.0 °F - 39.2 °F 93% 30.18 in 5.6 mi North 1.2 mph - N/A   Unknown
8:50 PM 39.2 °F 37.0 °F 37.4 °F 93% 30.18 in 5.6 mi North 3.5 mph - N/A   Unknown
9:00 PM 44 °F - 39 °F 75% 30.21 in - North 3.5 mph - -  
9:20 PM 41.0 °F - 37.4 °F 87% 30.18 in 5.6 mi North 2.3 mph - N/A   Unknown
9:50 PM 41.0 °F - 37.4 °F 87% 30.18 in 5.6 mi North 2.3 mph - N/A   Unknown
10:20 PM 39.2 °F - 37.4 °F 93% 30.18 in 3.1 mi North 2.3 mph - N/A   Unknown
10:50 PM 39.2 °F - 37.4 °F 93% 30.18 in 3.1 mi North 1.2 mph - N/A   Unknown
11:00 PM 42 °F - 38 °F 81% 30.21 in - North 1.2 mph - -  
11:20 PM 37.4 °F - 35.6 °F 93% 30.18 in 3.1 mi North 2.3 mph - N/A   Mist
11:50 PM 37.4 °F - 37.4 °F 100% 30.18 in 3.1 mi NNE 2.3 mph - N/A   Unknown